Tracking 30746 objects as of 20-Jun-2025
HD Live streaming from Space Station
objects crossing your sky now

COSMOS 1197

Track COSMOS 1197 now!
10-day predictions
COSMOS 1197 is classified as:


NORAD ID: 11880
Int'l Code: 1980-058F
Perigee: 1,477.5 km
Apogee: 1,499.2 km
Inclination: 74.0 °
Period: 115.6 minutes
Semi major axis: 7859 km
RCS: 0.6693 m2 (medium)
Launch date: July 9, 1980
Source: Commonwealth of Independent States (former USSR) (CIS)
Launch site: PLESETSK MISSILE AND SPACE COMPLEX (PKMTR)
Your satellite tracking list
Your tracking list is empty




NASA's NSSDC Master Catalog

Two Line Element Set (TLE):
1 11880U 80058F   25170.47980480 -.00000018  00000-0 -14790-4 0  9990
2 11880  74.0173 241.8160 0013805 244.4678 115.4944 12.46005010 44359
Source of the keplerian elements: AFSPC